#timestamp,LO_Frequency,Hit,StdDev 
1592434815.4,286047001.8,N
1592434835.2,286047001.3,N
1592434855.0,286047002.0,N
1592434855.9,286047002.0,N
1592434875.8,286047002.1,N
1592434895.6,286047001.4,N
1592434915.5,286047004.0,N
1592434935.3,286047003.7,N
1592434955.1,286047004.0,N
1592434975.9,286047001.7,N
1592434995.7,286047001.6,N
1592435015.5,286047004.0,N
1592435035.4,286047003.8,N
1592435055.2,286047004.0,N
1592435075.1,286047006.0,N
1592435076.0,286047006.0,N
1592435095.8,286047004.2,N
1592435115.6,286047001.5,N
1592435135.5,286047001.6,N
1592435155.3,286047001.8,N
1592435175.2,286047001.8,N
1592435195.9,286047001.3,N
1592435215.7,286047004.0,N
1592435235.6,286047004.3,N
1592435255.4,286047003.9,N
1592435275.2,286047001.3,N
1592435295.1,286047003.5,N
1592435296.0,286047003.5,N
1592435315.8,286047006.0,N
1592435335.7,286047003.9,N
1592435355.5,286047001.3,N
1592435375.3,286047001.8,N
1592435395.2,286047004.4,N
1592435415.0,286047003.1,N
1592435415.9,286047003.1,N
1592435435.8,286047004.0,N
1592435455.6,286047004.4,Y
1592435475.4,286047000.9,P
1592435495.3,286047000.4,N
1592435515.1,286047000.4,N
1592435535.9,286047001.2,N
1592435585.7,286047000.8,E
1592435595.6,286047001.2,N
1592435615.5,286046999.4,P
1592435635.3,286046999.6,N
1592435655.2,286047000.9,N
1592435675.9,286047000.4,N
1592435695.7,286047000.4,N
1592435715.6,286047001.1,N
1592435735.4,286047000.6,N
1592435755.2,286047000.9,N
1592435775.1,286046999.9,N
1592435776.0,286046999.9,N
1592435795.8,286047002.1,Y
1592435815.7,286047000.6,P
1592435835.5,286047001.2,P
1592435855.3,286046998.6,P
1592435875.2,286046998.9,N
1592435895.9,286047001.2,N
1592435915.7,286046998.6,N
1592435935.6,286046998.8,N
1592435955.4,286046999.2,N
1592435975.2,286046998.1,N
1592435995.1,286046998.9,N
1592435996.0,286046998.9,N
1592436015.8,286046998.7,N
1592436035.7,286046998.8,N
1592436055.5,286046998.8,N
1592436075.3,286046999.1,N
1592436095.2,286046997.1,Y
1592436115.0,286046999.3,P
1592436115.9,286046999.3,P
1592436135.8,286046999.0,P
1592436155.6,286047001.2,Y
1592436175.4,286046998.5,P
1592436195.3,286046998.7,P
1592436215.1,286046998.1,P
1592436235.8,286046999.0,N
1592436255.7,286046999.0,N
1592436275.5,286046998.4,Y
1592436295.4,286047000.1,P
1592436315.2,286046998.1,N
1592436335.0,286047001.1,N
1592436335.9,286047001.1,N
1592436355.8,286047000.4,N
1592436375.6,286046999.7,N
1592436395.5,286047000.2,N
1592436415.3,286047000.3,N
1592436435.1,286046998.6,N
1592436455.9,286046998.1,N
1592436475.7,286047001.0,N
1592436495.6,286046998.3,N
1592436515.4,286046998.5,N
1592436535.2,286046998.3,N
1592436555.1,286046999.9,N
1592436556.0,286046999.9,N
1592436575.8,286047000.1,N
1592436595.6,286046999.8,N
1592436615.5,286047002.3,N
1592436635.3,286047000.2,N
1592436655.2,286047002.6,N
1592436675.9,286047002.2,N
1592436695.7,286046999.9,N
1592436715.6,286047002.3,N
1592436735.4,286047000.2,N
1592436755.3,286046999.8,N
1592436775.1,286047002.0,N
1592436776.0,286047002.0,N
1592436795.8,286047002.5,N
1592436815.7,286047003.9,N
1592436835.5,286047001.3,N
1592436855.3,286047002.1,N
1592436875.2,286047002.6,N
1592436895.0,286047004.4,N
1592436895.9,286047004.4,N
1592436915.8,286047003.4,N
1592436935.6,286047004.3,N
1592436955.4,286047003.6,N
1592436975.3,286047004.1,N
1592436995.1,286047003.9,N
1592437015.8,286047002.2,N
1592437035.7,286047000.1,N
1592437055.5,286046998.1,N
1592437075.4,286046998.2,N
1592437095.2,286046998.6,N
1592437115.0,286046999.6,N
1592437115.9,286046999.6,N
1592437135.8,286046998.5,N
1592437155.6,286047000.8,N
1592437175.4,286047001.0,N
1592437195.3,286047001.2,N
1592437215.1,286046999.9,N
1592437235.9,286047002.1,N
1592437255.7,286047002.2,N
1592437275.5,286047002.4,N
1592437295.4,286047002.1,N
1592437315.2,286047003.2,N
1592437335.0,286047002.1,N
1592437335.9,286047002.1,N
1592437355.8,286046999.7,N
1592437375.6,286047002.6,N
1592437395.5,286047002.5,N
1592437415.3,286047002.0,N
1592437435.1,286047002.0,N
1592437455.9,286047003.8,N
1592437475.7,286047003.7,N
1592437495.5,286047004.0,N
1592437515.4,286047003.5,N
1592437535.2,286047003.6,N
1592437555.1,286047004.2,N
1592437556.0,286047004.2,N
1592437575.8,286047003.5,N
1592437595.6,286047003.2,N
1592437615.5,286047004.2,N
1592437635.3,286047003.9,N
1592437655.1,286047003.5,N
1592437675.9,286047001.9,N
1592437695.7,286047004.0,N
1592437715.6,286047003.7,N
1592437735.4,286047003.4,N
1592437755.2,286047004.2,Y
1592437775.1,286046999.7,P
1592437776.0,286046999.7,N
1592437795.8,286046999.9,N
1592437815.7,286047002.7,N
1592437835.5,286047000.0,N
1592437855.3,286047001.1,N
1592437875.2,286047001.0,N
1592437895.0,286047000.4,N
1592437895.9,286047000.4,N
1592437915.8,286047002.6,N
1592437935.6,286047002.7,N
1592437955.4,286047002.5,N
1592437975.3,286047002.3,N
1592437995.1,286047002.3,N
1592438015.8,286047000.9,N
1592438035.7,286047002.3,N
1592438055.5,286047002.0,N
1592438075.4,286047000.6,N
1592438095.2,286046999.9,N
1592438115.0,286046999.7,N
1592438115.9,286046999.7,N
1592438135.8,286047000.3,N
1592438155.6,286047002.6,N
1592438175.4,286046999.7,N
1592438195.3,286046998.2,N
1592438215.1,286046999.4,N
1592438235.9,286046998.7,N
1592438255.7,286046998.5,N
1592438275.5,286046999.9,N
1592438295.4,286047002.1,N
1592438315.2,286047002.3,N
1592438335.0,286046999.9,N
1592438335.9,286046999.9,N
1592438355.8,286047002.6,N
1592438375.6,286047002.0,N
1592438395.4,286047002.5,N
